Back to catalog

STARLINK-33741

AliveCommunicationsVLEO
NORAD 63365·PAYLOAD·🇺🇸 United States

Launched Mar 26, 2025 from Vandenberg Space Force Base

Loading…

Next Passes (next 24 hours)

TLE

FreshSource: CelesTrak SupGP

Epoch: Sep 15, 2026, 02:15 UTC

1 63365C 25063C   26258.09423611 -.00033000  00000+0 -97480-3 0  2584
2 63365  53.1572 247.1381 0001373  89.7873  12.3883 15.34412599    19

Track STARLINK-33741 in real time with AllMySat

Download on the App Store